Time,TemperatureF,DewpointF,PressureIn,WindDirection,WindDirectionDegrees,WindSpeedMPH,WindSpeedGustMPH,Humidity,HourlyPrecipIn,Conditions,Clouds,dailyrainin,SoftwareType,DateUTC
2013-02-06 00:02:00,41.0,34.0,29.93,East,92,1.0,0.0,77,-99.99,,,-99.99,,2013-02-06 05:02:00,
2013-02-06 00:12:00,41.0,34.0,29.93,East,92,1.0,0.0,77,-99.99,,,-99.99,,2013-02-06 05:12:00,
2013-02-06 00:22:00,41.0,34.0,29.93,NE,37,1.0,0.0,77,-99.99,,,-99.99,,2013-02-06 05:22:00,
2013-02-06 00:32:00,41.0,34.0,29.93,NE,44,1.0,0.0,77,-99.99,,,-99.99,,2013-02-06 05:32:00,
2013-02-06 00:42:00,41.0,34.0,29.93,NE,44,1.0,0.0,77,-99.99,,,-99.99,,2013-02-06 05:42:00,
2013-02-06 00:53:00,41.0,34.0,29.93,ENE,63,0.0,0.0,77,-99.99,,,-99.99,,2013-02-06 05:53:00,
2013-02-06 01:01:00,41.0,34.0,29.93,ENE,63,0.0,0.0,77,-99.99,,,-99.99,,2013-02-06 06:01:00,
2013-02-06 01:11:00,41.0,34.0,29.93,ENE,63,0.0,0.0,77,-99.99,,,-99.99,,2013-02-06 06:11:00,
2013-02-06 01:22:00,42.0,35.0,29.93,NE,39,2.0,0.0,76,-99.99,,,-99.99,,2013-02-06 06:22:00,
2013-02-06 01:32:00,42.0,35.0,29.93,NE,49,3.0,0.0,76,-99.99,,,-99.99,,2013-02-06 06:32:00,
2013-02-06 01:42:00,42.0,35.0,29.93,NE,49,3.0,0.0,76,-99.99,,,-99.99,,2013-02-06 06:42:00,
2013-02-06 01:52:00,41.0,35.0,29.94,ESE,108,0.0,0.0,78,-99.99,,,-99.99,,2013-02-06 06:52:00,
2013-02-06 02:01:00,40.0,34.0,29.94,ESE,107,1.0,0.0,79,-99.99,,,-99.99,,2013-02-06 07:01:00,
2013-02-06 02:11:00,40.0,34.0,29.94,ESE,107,1.0,0.0,79,-99.99,,,-99.99,,2013-02-06 07:11:00,
2013-02-06 02:22:00,40.0,34.0,29.94,ENE,73,2.0,0.0,80,-99.99,,,-99.99,,2013-02-06 07:22:00,
2013-02-06 02:32:00,40.0,34.0,29.95,East,84,0.0,0.0,80,-99.99,,,-99.99,,2013-02-06 07:32:00,
2013-02-06 02:42:00,40.0,34.0,29.95,East,84,0.0,0.0,80,-99.99,,,-99.99,,2013-02-06 07:42:00,
2013-02-06 02:52:00,40.0,34.0,29.95,ESE,114,1.0,0.0,79,-99.99,,,-99.99,,2013-02-06 07:52:00,
2013-02-06 03:01:00,40.0,34.0,29.95,ENE,72,1.0,0.0,79,-99.99,,,-99.99,,2013-02-06 08:01:00,
2013-02-06 03:11:00,40.0,34.0,29.95,ENE,72,1.0,0.0,79,-99.99,,,-99.99,,2013-02-06 08:11:00,
2013-02-06 03:21:00,41.0,34.0,29.95,ENE,78,1.0,0.0,77,-99.99,,,-99.99,,2013-02-06 08:21:00,
2013-02-06 03:31:00,42.0,35.0,29.95,East,90,2.0,0.0,75,-99.99,,,-99.99,,2013-02-06 08:31:00,
2013-02-06 03:42:00,42.0,35.0,29.95,East,90,2.0,0.0,75,-99.99,,,-99.99,,2013-02-06 08:42:00,
2013-02-06 03:53:00,42.0,34.0,29.96,ENE,61,0.0,0.0,72,-99.99,,,-99.99,,2013-02-06 08:53:00,
2013-02-06 04:02:00,43.0,33.0,29.96,SSE,159,2.0,0.0,68,-99.99,,,-99.99,,2013-02-06 09:02:00,
2013-02-06 04:22:00,45.0,33.0,29.96,East,95,1.0,0.0,62,-99.99,,,-99.99,,2013-02-06 09:22:00,
2013-02-06 04:32:00,46.0,32.0,29.97,SE,133,1.0,0.0,59,-99.99,,,-99.99,,2013-02-06 09:32:00,
2013-02-06 04:52:00,46.0,32.0,29.98,South,176,4.0,0.0,57,-99.99,,,-99.99,,2013-02-06 09:52:00,
2013-02-06 05:01:00,46.0,32.0,29.98,SE,126,4.0,0.0,57,-99.99,,,-99.99,,2013-02-06 10:01:00,
2013-02-06 05:22:00,45.0,30.0,29.99,SE,143,1.0,0.0,56,-99.99,,,-99.99,,2013-02-06 10:22:00,
2013-02-06 05:32:00,45.0,30.0,30.00,ESE,110,5.0,0.0,56,-99.99,,,-99.99,,2013-02-06 10:32:00,
2013-02-06 05:52:00,45.0,30.0,30.01,ENE,61,3.0,0.0,55,-99.99,,,-99.99,,2013-02-06 10:52:00,
2013-02-06 06:01:00,45.0,30.0,30.01,ESE,117,5.0,0.0,55,-99.99,,,-99.99,,2013-02-06 11:01:00,
2013-02-06 06:22:00,44.0,30.0,30.03,SE,127,1.0,0.0,57,-99.99,,,-99.99,,2013-02-06 11:22:00,
2013-02-06 06:32:00,44.0,30.0,30.04,East,96,1.0,0.0,57,-99.99,,,-99.99,,2013-02-06 11:32:00,
2013-02-06 06:53:00,44.0,30.0,30.06,SSE,154,1.0,0.0,57,-99.99,,,-99.99,,2013-02-06 11:53:00,
2013-02-06 07:02:00,43.0,29.0,30.06,SE,141,3.0,0.0,57,-99.99,,,-99.99,,2013-02-06 12:02:00,
2013-02-06 07:22:00,43.0,29.0,30.07,ESE,111,2.0,0.0,57,-99.99,,,-99.99,,2013-02-06 12:22:00,
2013-02-06 07:32:00,42.0,28.0,30.08,ENE,64,3.0,13.0,57,-99.99,,,-99.99,,2013-02-06 12:32:00,
2013-02-06 07:52:00,42.0,28.0,30.09,ESE,116,2.0,0.0,58,-99.99,,,-99.99,,2013-02-06 12:52:00,
2013-02-06 08:01:00,41.0,28.0,30.10,SSE,150,0.0,0.0,59,-99.99,,,-99.99,,2013-02-06 13:01:00,
2013-02-06 08:12:00,41.0,28.0,30.10,SSE,150,0.0,0.0,59,-99.99,,,-99.99,,2013-02-06 13:12:00,
2013-02-06 08:22:00,41.0,28.0,30.11,East,83,0.0,0.0,60,-99.99,,,-99.99,,2013-02-06 13:22:00,
2013-02-06 08:32:00,41.0,28.0,30.11,SE,132,1.0,0.0,59,-99.99,,,-99.99,,2013-02-06 13:32:00,
2013-02-06 08:52:00,42.0,28.0,30.12,SE,127,3.0,0.0,58,-99.99,,,-99.99,,2013-02-06 13:52:00,
2013-02-06 09:02:00,42.0,28.0,30.13,ENE,73,3.0,0.0,57,-99.99,,,-99.99,,2013-02-06 14:02:00,
2013-02-06 09:22:00,43.0,29.0,30.14,SE,132,3.0,0.0,57,-99.99,,,-99.99,,2013-02-06 14:22:00,
2013-02-06 09:32:00,43.0,28.0,30.14,SSE,159,1.0,0.0,56,-99.99,,,-99.99,,2013-02-06 14:32:00,
2013-02-06 09:52:00,44.0,29.0,30.14,East,96,1.0,0.0,55,-99.99,,,-99.99,,2013-02-06 14:52:00,
2013-02-06 10:02:00,44.0,29.0,30.14,SW,225,0.0,0.0,55,-99.99,,,-99.99,,2013-02-06 15:02:00,
2013-02-06 10:21:00,44.0,28.0,30.15,SSE,155,0.0,0.0,54,-99.99,,,-99.99,,2013-02-06 15:21:00,
2013-02-06 10:32:00,45.0,28.0,30.16,East,98,1.0,0.0,52,-99.99,,,-99.99,,2013-02-06 15:32:00,
2013-02-06 10:52:00,46.0,29.0,30.17,ESE,114,1.0,0.0,51,-99.99,,,-99.99,,2013-02-06 15:52:00,
2013-02-06 11:01:00,47.0,28.0,30.17,South,188,1.0,0.0,48,-99.99,,,-99.99,,2013-02-06 16:01:00,
2013-02-06 11:21:00,47.0,28.0,30.17,NNE,29,3.0,0.0,48,-99.99,,,-99.99,,2013-02-06 16:21:00,
2013-02-06 11:32:00,48.0,29.0,30.18,ESE,110,2.0,0.0,47,-99.99,,,-99.99,,2013-02-06 16:32:00,
2013-02-06 11:52:00,49.0,30.0,30.18,ESE,108,1.0,0.0,47,-99.99,,,-99.99,,2013-02-06 16:52:00,
2013-02-06 12:02:00,49.0,29.0,30.17,East,82,1.0,0.0,45,-99.99,,,-99.99,,2013-02-06 17:02:00,
2013-02-06 12:22:00,50.0,29.0,30.17,SE,132,1.0,0.0,45,-99.99,,,-99.99,,2013-02-06 17:22:00,
2013-02-06 12:52:00,51.0,28.0,30.16,SE,124,3.0,0.0,40,-99.99,,,-99.99,,2013-02-06 17:52:00,
2013-02-06 13:01:00,51.0,28.0,30.16,ESE,108,2.0,0.0,40,-99.99,,,-99.99,,2013-02-06 18:01:00,
2013-02-06 13:23:00,51.0,26.0,30.16,ESE,118,0.0,0.0,38,-99.99,,,-99.99,,2013-02-06 18:23:00,
2013-02-06 13:32:00,52.0,27.0,30.16,East,87,0.0,0.0,38,-99.99,,,-99.99,,2013-02-06 18:32:00,
2013-02-06 13:52:00,52.0,27.0,30.15,NE,56,0.0,0.0,37,-99.99,,,-99.99,,2013-02-06 18:52:00,
2013-02-06 14:02:00,53.0,28.0,30.15,South,176,1.0,0.0,38,-99.99,,,-99.99,,2013-02-06 19:02:00,
2013-02-06 14:21:00,53.0,29.0,30.15,ENE,64,6.0,0.0,40,-99.99,,,-99.99,,2013-02-06 19:21:00,
2013-02-06 14:32:00,54.0,30.0,30.15,WSW,256,0.0,0.0,39,-99.99,,,-99.99,,2013-02-06 19:32:00,
2013-02-06 14:52:00,54.0,28.0,30.14,North,352,1.0,0.0,36,-99.99,,,-99.99,,2013-02-06 19:52:00,
2013-02-06 15:01:00,54.0,27.0,30.14,ESE,112,3.0,0.0,35,-99.99,,,-99.99,,2013-02-06 20:01:00,
2013-02-06 15:21:00,54.0,28.0,30.14,NE,52,0.0,0.0,36,-99.99,,,-99.99,,2013-02-06 20:21:00,
2013-02-06 15:32:00,54.0,28.0,30.14,NW,318,2.0,0.0,36,-99.99,,,-99.99,,2013-02-06 20:32:00,
2013-02-06 15:52:00,54.0,27.0,30.14,NE,46,3.0,0.0,35,-99.99,,,-99.99,,2013-02-06 20:52:00,
2013-02-06 16:02:00,55.0,27.0,30.15,ESE,115,1.0,0.0,34,-99.99,,,-99.99,,2013-02-06 21:02:00,
2013-02-06 16:21:00,55.0,26.0,30.14,South,181,1.0,0.0,33,-99.99,,,-99.99,,2013-02-06 21:21:00,
2013-02-06 16:32:00,55.0,26.0,30.15,ENE,75,2.0,0.0,33,-99.99,,,-99.99,,2013-02-06 21:32:00,
2013-02-06 16:52:00,55.0,26.0,30.15,SSW,200,2.0,0.0,33,-99.99,,,-99.99,,2013-02-06 21:52:00,
2013-02-06 17:22:00,55.0,26.0,30.16,East,82,0.0,0.0,32,-99.99,,,-99.99,,2013-02-06 22:22:00,
2013-02-06 17:32:00,56.0,26.0,30.16,East,82,0.0,0.0,31,-99.99,,,-99.99,,2013-02-06 22:32:00,
2013-02-06 17:52:00,53.0,25.0,30.16,East,82,0.0,0.0,33,-99.99,,,-99.99,,2013-02-06 22:52:00,
2013-02-06 18:01:00,51.0,24.0,30.17,East,82,0.0,0.0,35,-99.99,,,-99.99,,2013-02-06 23:01:00,
2013-02-06 18:21:00,48.0,25.0,30.18,East,82,0.0,0.0,41,-99.99,,,-99.99,,2013-02-06 23:21:00,
2013-02-06 18:32:00,46.0,26.0,30.18,East,82,1.0,0.0,46,-99.99,,,-99.99,,2013-02-06 23:32:00,
2013-02-06 18:42:00,46.0,26.0,30.18,East,82,1.0,0.0,46,-99.99,,,-99.99,,2013-02-06 23:42:00,
2013-02-06 18:52:00,44.0,26.0,30.19,East,82,1.0,0.0,49,-99.99,,,-99.99,,2013-02-06 23:52:00,
2013-02-06 19:02:00,43.0,27.0,30.19,East,82,1.0,0.0,53,-99.99,,,-99.99,,2013-02-07 00:02:00,
2013-02-06 19:11:00,43.0,27.0,30.19,East,82,1.0,0.0,53,-99.99,,,-99.99,,2013-02-07 00:11:00,
2013-02-06 19:22:00,40.0,26.0,30.20,East,82,0.0,0.0,57,-99.99,,,-99.99,,2013-02-07 00:22:00,
2013-02-06 19:32:00,39.0,26.0,30.21,East,82,0.0,0.0,60,-99.99,,,-99.99,,2013-02-07 00:32:00,
2013-02-06 19:42:00,39.0,26.0,30.21,East,82,0.0,0.0,60,-99.99,,,-99.99,,2013-02-07 00:42:00,
2013-02-06 19:52:00,38.0,26.0,30.21,East,82,0.0,0.0,61,-99.99,,,-99.99,,2013-02-07 00:52:00,
2013-02-06 20:01:00,38.0,27.0,30.22,East,82,0.0,0.0,64,-99.99,,,-99.99,,2013-02-07 01:01:00,
2013-02-06 20:11:00,38.0,27.0,30.22,East,82,0.0,0.0,64,-99.99,,,-99.99,,2013-02-07 01:11:00,
2013-02-06 20:21:00,37.0,27.0,30.22,East,82,1.0,0.0,66,-99.99,,,-99.99,,2013-02-07 01:21:00,
2013-02-06 20:32:00,36.0,26.0,30.23,East,82,1.0,0.0,67,-99.99,,,-99.99,,2013-02-07 01:32:00,
2013-02-06 20:42:00,36.0,26.0,30.23,East,82,1.0,0.0,67,-99.99,,,-99.99,,2013-02-07 01:42:00,
2013-02-06 20:52:00,35.0,26.0,30.24,East,82,0.0,0.0,68,-99.99,,,-99.99,,2013-02-07 01:52:00,
2013-02-06 21:01:00,35.0,26.0,30.24,East,82,0.0,0.0,69,-99.99,,,-99.99,,2013-02-07 02:01:00,
2013-02-06 21:11:00,35.0,26.0,30.24,East,82,0.0,0.0,69,-99.99,,,-99.99,,2013-02-07 02:11:00,
2013-02-06 21:21:00,34.0,26.0,30.23,East,82,0.0,0.0,72,-99.99,,,-99.99,,2013-02-07 02:21:00,
2013-02-06 21:32:00,34.0,26.0,30.23,East,82,0.0,0.0,73,-99.99,,,-99.99,,2013-02-07 02:32:00,
2013-02-06 21:42:00,34.0,26.0,30.23,East,82,0.0,0.0,73,-99.99,,,-99.99,,2013-02-07 02:42:00,
2013-02-06 21:52:00,34.0,26.0,30.23,East,82,0.0,0.0,73,-99.99,,,-99.99,,2013-02-07 02:52:00,
2013-02-06 22:02:00,33.0,26.0,30.23,East,82,0.0,0.0,75,-99.99,,,-99.99,,2013-02-07 03:02:00,
2013-02-06 22:11:00,33.0,26.0,30.23,East,82,0.0,0.0,75,-99.99,,,-99.99,,2013-02-07 03:11:00,
2013-02-06 22:21:00,32.0,25.0,30.24,East,82,0.0,0.0,76,-99.99,,,-99.99,,2013-02-07 03:21:00,
2013-02-06 22:32:00,32.0,26.0,30.23,East,82,0.0,0.0,77,-99.99,,,-99.99,,2013-02-07 03:32:00,
2013-02-06 22:42:00,32.0,26.0,30.23,East,82,0.0,0.0,77,-99.99,,,-99.99,,2013-02-07 03:42:00,
2013-02-06 22:52:00,31.0,25.0,30.24,East,82,1.0,0.0,79,-99.99,,,-99.99,,2013-02-07 03:52:00,
2013-02-06 23:01:00,32.0,26.0,30.24,NE,44,0.0,0.0,79,-99.99,,,-99.99,,2013-02-07 04:01:00,
2013-02-06 23:11:00,32.0,26.0,30.24,NE,44,0.0,0.0,79,-99.99,,,-99.99,,2013-02-07 04:11:00,
2013-02-06 23:22:00,31.0,25.0,30.24,NE,44,0.0,0.0,79,-99.99,,,-99.99,,2013-02-07 04:22:00,
2013-02-06 23:32:00,31.0,25.0,30.25,NE,44,0.0,0.0,79,-99.99,,,-99.99,,2013-02-07 04:32:00,
2013-02-06 23:42:00,31.0,25.0,30.25,NE,44,0.0,0.0,79,-99.99,,,-99.99,,2013-02-07 04:42:00,
2013-02-06 23:53:00,30.0,25.0,30.28,NE,44,0.0,0.0,81,-99.99,,,-99.99,,2013-02-07 04:53:00,